Location: Starlight Observatory
(38.4029°N, 85.8936°W)
Time: 10:46:13
(UTC-04:00)

Iridium 84 - Visible Passes

Search period start: 29 July 2014 00:00
Search period end: 08 August 2014 00:00
Orbit: 776 x 779 km, 86.4° (Epoch: 29 July)

Date Brightness Start Highest point End Pass type
(mag) Time Alt. Az. Time Alt. Az. Time Alt. Az.
29 Jul 6.3 21:59:15 10° NNW 22:04:20 55° W 22:09:23 10° SSW visible
30 Jul 5.5 21:25:37 10° N 21:30:51 79° E 21:36:03 10° S visible
30 Jul 8.6 23:09:55 10° WNW 23:10:47 10° WNW 23:11:38 10° W visible
31 Jul 8.0 22:33:53 10° NW 22:37:37 20° W 22:41:21 10° SW visible
01 Aug 7.0 21:59:34 10° NNW 22:04:20 37° W 22:09:05 10° SSW visible
02 Aug 5.9 21:25:44 10° N 21:30:56 71° W 21:36:06 10° S visible
03 Aug 8.4 22:34:57 10° NW 22:37:30 14° WNW 22:40:03 10° WSW visible
04 Aug 7.8 22:00:03 10° NNW 22:04:18 26° W 22:08:31 10° SW visible
05 Aug 6.6 21:25:58 10° NNW 21:30:58 48° W 21:35:56 10° SSW visible
07 Aug 8.3 22:00:48 10° NW 22:04:12 18° W 22:07:36 10° WSW visible
